{"data":{"norad_id":63823,"intl_designator":"2025-092V","name":"STARLINK-34043","alt_names":[],"object_type":"PAYLOAD","status":"ACTIVE","operator":null,"country":"US","launch_date":"2025-05-04","launch_site_code":"AFETR","launch_vehicle":null,"mission":null,"orbit_class":"UNKNOWN","rcs_meters":null,"size_class":null,"mass_kg":null,"dimensions":null,"purposes":["comms"],"wikipedia_slug":null,"has_3d_model":false,"image_url":null,"decayed_at":null,"tle_current":{"epoch":"2026-05-25T03:26:10.008960Z","epoch_age_seconds":62695,"freshness":"FRESH","line1":"1 63823U 25092V   26145.14317140  .00013336  00000+0  49300-3 0  9993","line2":"2 63823  42.9998  96.7245 0001157 259.2474 100.8247 15.27596370 60356","mean_motion":15.2759637,"eccentricity":0.0001157,"inclination_deg":42.9998,"raan_deg":96.7245,"arg_perigee_deg":259.2474,"mean_anomaly_deg":100.8247,"bstar":0.000493,"rev_number":6035,"period_min":94.265738534061,"perigee_km":482.20624524829,"apogee_km":483.79391236833,"semimajor_km":6861.1370788083,"source":"CELESTRAK","updated_at":"2026-05-25T13:38:20.143435Z"}}}